Location: Asheville, NC
(35.6000°N, 82.5500°W)
Time: 10:02:43

Vanguard 1 Rocket - Pass Details

Date: 14 December 2017
Orbit: 655 x 4222 km, 34.3° (Epoch: 20 March)

Event Time Altitude Azimuth Distance (km) Brightness Sun altitude
Rises 00:39:59 0° 286° (WNW) 7,265 12.0 -77.2°
Reaches altitude 10° 00:45:00 10° 278° (W) 6,629 11.7 -76.9°
Enters shadow 00:45:01 10° 278° (W) 6,628 11.7 -76.9°
Maximum altitude 01:04:59 37° 222° (SW) 5,470 - -74.9°
Drops below altitude 10° 01:26:04 10° 164° (SSE) 6,857 - -71.9°
Exits shadow 01:26:43 - 163° (SSE) 6,931 11.7 -71.8°
Sets 01:31:34 0° 156° (SSE) 7,513 12.0 -71.0°
